Location: Siratepeler Tepesi
(39.1042°N, 32.0781°E)
Time: 11:03:02
(UTC+00:00)

Meteor 2-21 - Pass Details

Date: 11 April 2026
Orbit: 934 x 965 km, 82.5° (Epoch: 14 May)

Event Time Altitude Azimuth Distance (km) Brightness Sun altitude
Rises 18:50:16 0° 355° (N) 3,621 8.1 -26.3°
Reaches altitude 10° 18:52:48 10° 359° (N) 2,677 7.3 -26.7°
Enters shadow 18:58:42 64° 71° (ENE) 1,049 4.4 -27.6°
